Location: Piotrkow Trybunalski
(51.4000°N, 19.6830°E)
Time: 17:28:25
(UTC+01:00)

ISS - Pass Details

Date: 02 February 2020
Orbit: 415 x 422 km, 51.6° (Epoch: 26 February)

Event Time Altitude Azimuth Distance (km) Brightness Sun altitude
Rises 17:42:10 0° 280° (W) 2,381 1.5 -11.1°
Reaches altitude 10° 17:44:16 10° 279° (W) 1,514 0.3 -11.4°
Maximum altitude 17:47:40 81° 194° (SSW) 433 -3.7 -12.0°
Enters shadow 17:50:04 18° 106° (ESE) 1,111 -2.1 -12.3°
